| time (UTC) | temp C | wind direction | speed KPH | gust KPH | rain 1hr cm | rain 24hr cm | rain mn cm | humidity % | barometer mb |
| 20260505162930 | 11 | 355 | 1.6 | 11.3 | 0.00 | 0.97 | 0.03 | 94 | 1008.4 |
| 20260505161429 | 11 | 11 | 1.6 | 14.5 | 0.00 | 0.97 | 0.03 | 93 | 1008.5 |
| 20260505152917 | 11 | 66 | 3.2 | 11.3 | 0.00 | 0.97 | 0.03 | 93 | 1008.5 |
| 20260505151416 | 11 | 350 | 4.8 | 12.9 | 0.00 | 0.97 | 0.03 | 93 | 1008.5 |
| 20260505124404 | 10 | 32 | 3.2 | 11.3 | 0.00 | 0.97 | 0.03 | 96 | 1009.4 |
| 20260505121405 | 10 | 348 | 1.6 | 11.3 | 0.00 | 0.97 | 0.03 | 96 | 1009.4 |
| 20260505115901 | 10 | 47 | 3.2 | 14.5 | 0.00 | 0.97 | 0.03 | 97 | 1009.4 |
| 20260505114403 | 10 | 355 | 1.6 | 11.3 | 0.00 | 0.97 | 0.03 | 97 | 1009.7 |
| 20260505111401 | 10 | 5 | 1.6 | 9.7 | 0.00 | 0.97 | 0.03 | 97 | 1009.7 |
| 20260505101350 | 10 | 5 | 3.2 | 9.7 | 0.00 | 0.97 | 0.03 | 97 | 1009.9 |
| 20260505095848 | 10 | 355 | 1.6 | 8.0 | 0.00 | 0.97 | 0.03 | 97 | 1009.9 |
| 20260505094351 | 10 | 346 | 3.2 | 12.9 | 0.00 | 0.97 | 0.03 | 97 | 1009.9 |
| 20260505092848 | 10 | 344 | 1.6 | 12.9 | 0.00 | 0.97 | 0.03 | 97 | 1009.8 |
| 20260505091348 | 10 | 67 | 3.2 | 12.9 | 0.00 | 0.97 | 0.03 | 97 | 1009.9 |
| 20260505085840 | 10 | 27 | 3.2 | 9.7 | 0.00 | 0.97 | 0.03 | 97 | 1009.9 |
| 20260505084340 | 10 | 348 | 4.8 | 11.3 | 0.00 | 0.97 | 0.03 | 97 | 1009.9 |
| 20260505082840 | 10 | 348 | 1.6 | 9.7 | 0.00 | 0.97 | 0.03 | 97 | 1010.1 |
| 20260505081333 | 10 | 355 | 3.2 | 11.3 | 0.00 | 0.97 | 0.03 | 97 | 1009.9 |
| 20260505075832 | 10 | 345 | 3.2 | 9.7 | 0.00 | 0.97 | 0.03 | 97 | 1009.9 |
| 20260505074333 | 10 | 350 | 1.6 | 9.7 | 0.00 | 0.97 | 0.03 | 97 | 1009.8 |
| 20260505072833 | 10 | 328 | 1.6 | 9.7 | 0.00 | 0.97 | 0.03 | 97 | 1009.9 |
| 20260505071331 | 10 | 16 | 1.6 | 8.0 | 0.00 | 0.97 | 0.03 | 97 | 1009.9 |
| 20260505065833 | 10 | 355 | 1.6 | 14.5 | 0.00 | 0.97 | 0.03 | 97 | 1009.9 |
| 20260505064330 | 10 | 355 | 1.6 | 9.7 | 0.00 | 0.97 | 0.03 | 97 | 1009.9 |
| 20260505062833 | 10 | 11 | 3.2 | 9.7 | 0.00 | 0.97 | 0.03 | 97 | 1010.0 |
| 20260505061331 | 10 | 350 | 1.6 | 8.0 | 0.00 | 0.97 | 0.03 | 97 | 1010.1 |
| 20260505055831 | 11 | 342 | 1.6 | 11.3 | 0.00 | 0.97 | 0.03 | 97 | 1010.2 |
| 20260505054334 | 11 | 9 | 1.6 | 9.7 | 0.00 | 0.97 | 0.03 | 97 | 1010.0 |
| 20260505052832 | 11 | 338 | 1.6 | 9.7 | 0.00 | 0.97 | 0.03 | 97 | 1010.0 |
| 20260505051332 | 11 | 351 | 1.6 | 8.0 | 0.00 | 0.97 | 0.03 | 97 | 1009.8 |
| 20260505041329 | 11 | 9 | 1.6 | 8.0 | 0.00 | 0.99 | 0.03 | 97 | 1010.0 |
| 20260505035830 | 11 | 355 | 0.0 | 0.0 | 0.00 | 0.99 | 0.03 | 97 | 1010.1 |
| 20260505034325 | 11 | 355 | 0.0 | 6.4 | 0.00 | 0.99 | 0.03 | 96 | 1010.1 |
| 20260505032804 | 12 | 349 | 0.0 | 8.0 | 0.00 | 0.99 | 0.03 | 97 | 1010.2 |
| 20260505031306 | 12 | 13 | 0.0 | 8.0 | 0.00 | 0.99 | 0.03 | 97 | 1010.2 |
| 20260505024306 | 12 | 5 | 1.6 | 12.9 | 0.00 | 0.99 | 0.03 | 96 | 1010.3 |
| 20260505022805 | 12 | 9 | 3.2 | 8.0 | 0.00 | 0.99 | 0.03 | 96 | 1010.3 |
| 20260505021305 | 12 | 346 | 1.6 | 11.3 | 0.00 | 0.99 | 0.03 | 97 | 1010.3 |
| 20260505015805 | 12 | 349 | 1.6 | 11.3 | 0.00 | 0.99 | 0.03 | 96 | 1010.2 |
| 20260505014304 | 12 | 342 | 1.6 | 9.7 | 0.00 | 0.99 | 0.03 | 96 | 1010.4 |
| 20260505012802 | 12 | 10 | 0.0 | 3.2 | 0.00 | 0.99 | 0.03 | 96 | 1010.4 |
| 20260505011315 | 12 | 355 | 1.6 | 11.3 | 0.00 | 0.99 | 0.03 | 96 | 1010.5 |
| 20260505005802 | 13 | 355 | 1.6 | 6.4 | 0.03 | 0.99 | 0.03 | 96 | 1010.5 |
| 20260505004303 | 13 | 348 | 0.0 | 8.0 | 0.03 | 0.99 | 0.03 | 96 | 1010.6 |
| 20260505002804 | 13 | 331 | 0.0 | 0.0 | 0.03 | 0.99 | 0.03 | 96 | 1010.7 |
| 20260505001301 | 13 | 330 | 1.6 | 8.0 | 0.03 | 0.99 | 0.03 | 96 | 1010.7 |
| 20260504235801 | 13 | 292 | 0.0 | 0.0 | 0.00 | 0.97 | 0.00 | 96 | 1010.9 |
| 20260504234302 | 13 | 292 | 0.0 | 0.0 | 0.00 | 0.97 | 0.00 | 96 | 1010.9 |
| 20260504232802 | 13 | 292 | 0.0 | 0.0 | 0.00 | 0.97 | 0.00 | 96 | 1011.0 |
| 20260504231300 | 13 | 292 | 0.0 | 0.0 | 0.00 | 0.97 | 0.00 | 96 | 1011.0 |
| 20260504225754 | 13 | 292 | 0.0 | 0.0 | 0.00 | 0.97 | 0.00 | 96 | 1011.1 |
| 20260504222735 | 13 | 292 | 0.0 | 1.6 | 0.00 | 0.97 | 0.00 | 96 | 1011.5 |
| 20260504221237 | 13 | 292 | 0.0 | 0.0 | 0.00 | 0.97 | 0.00 | 96 | 1011.5 |
| 20260504215730 | 13 | 292 | 0.0 | 3.2 | 0.00 | 0.97 | 0.97 | 96 | 1011.6 |
| 20260504214231 | 13 | 292 | 0.0 | 4.8 | 0.00 | 0.97 | 0.97 | 96 | 1011.9 |
| 20260504211230 | 13 | 249 | 0.0 | 0.0 | 0.00 | 0.97 | 0.97 | 96 | 1011.9 |
| 20260504205730 | 13 | 249 | 0.0 | 0.0 | 0.00 | 0.97 | 0.97 | 96 | 1012.0 |
| 20260504202729 | 13 | 249 | 0.0 | 0.0 | 0.00 | 0.97 | 0.97 | 95 | 1012.0 |
| 20260504201229 | 13 | 249 | 0.0 | 0.0 | 0.00 | 0.97 | 0.97 | 95 | 1012.1 |
| 20260504195723 | 13 | 249 | 0.0 | 0.0 | 0.03 | 0.97 | 0.97 | 95 | 1012.0 |
| 20260504194203 | 13 | 249 | 0.0 | 0.0 | 0.10 | 0.97 | 0.97 | 95 | 1011.9 |
| 20260504192701 | 13 | 249 | 0.0 | 0.0 | 0.18 | 0.97 | 0.97 | 94 | 1011.8 |
| 20260504191155 | 13 | 248 | 0.0 | 0.0 | 0.30 | 0.97 | 0.97 | 94 | 1011.8 |
| 20260504185651 | 13 | 249 | 0.0 | 0.0 | 0.41 | 0.94 | 0.94 | 93 | 1011.7 |
| 20260504184150 | 13 | 249 | 0.0 | 0.0 | 0.64 | 0.89 | 0.86 | 93 | 1011.5 |
| 20260504182647 | 14 | 249 | 0.0 | 0.0 | 0.74 | 0.79 | 0.76 | 93 | 1011.7 |
| 20260504181133 | 14 | 249 | 0.0 | 0.0 | 0.64 | 0.69 | 0.66 | 91 | 1011.9 |
| 20260504175635 | 15 | 249 | 0.0 | 0.0 | 0.51 | 0.53 | 0.51 | 91 | 1011.9 |
| 20260504174134 | 15 | 221 | 0.0 | 0.0 | 0.20 | 0.25 | 0.20 | 88 | 1012.0 |
| 20260504172634 | 16 | 219 | 0.0 | 0.0 | 0.03 | 0.13 | 0.05 | 86 | 1011.7 |
| 20260504171131 | 16 | 220 | 0.0 | 0.0 | 0.00 | 0.18 | 0.03 | 81 | 1011.7 |